[[{"header":{"parameterUnit":"m.s-1","parameterCategory":1,"la1":30.2991,"la2":30.254,"lo1":-89.0895,"lo2":-89.0444,"dy":0.0017,"dx":0.0017,"nx":28,"ny":28,"refTime":"2025-05-21T21:00:00:Z","depth":0,"parameterNumber":2,"parameterNumberName":"U-component_of_WINDS"},"data":[0,0,0,0,0,0,0,0,0,0,0,0,0,0,0,0,0,0,0,0,0,0,0,0,0,0,0,0,0,0,0,0,0,0,0,0,0,0,0,0,0,0,0,0,0,0,0,0,0,0,0,0,0,0,0,0,0,0,-0.6008,-0.6007,0,-0.5892,-0.5891,-0.5889,-0.5846,-0.5846,-0.5847,-0.5847,-0.5724,-0.5721,-0.5717,0,0,0,0,0,0,0,0,0,0,0,0,0,-0.6186,-0.6183,-0.6008,-0.6007,-0.6005,-0.5892,-0.5891,-0.5889,-0.5846,-0.5846,-0.5847,-0.5847,-0.5726,-0.5721,-0.5717,0,0,0,0,0,0,0,0,0,0,0,0,0,-0.6093,-0.6182,-0.6008,-0.597,-0.5966,-0.5893,-0.5891,-0.5889,-0.5846,-0.5846,-0.5847,-0.5848,-0.5727,-0.5722,-0.5716,-0.5672,0,0,-0.57,-0.5697,0,0,0,0,0,0,0,0,-0.6099,-0.6087,-0.5977,-0.5973,-0.5968,-0.5884,-0.5908,-0.5816,-0.5846,-0.5891,-0.5847,-0.5848,-0.5777,-0.5767,-0.5744,-0.5666,-0.5661,-0.5699,-0.5696,-0.5694,-0.5692,0,0,0,0,0,0,0,-0.6105,-0.6092,-0.5962,-0.5976,-0.597,-0.5957,-0.5944,-0.5891,-0.5832,-0.5887,-0.5884,-0.5871,-0.5774,-0.575,-0.5741,-0.5659,-0.5699,-0.5695,-0.5691,-0.5689,-0.5533,-0.5533,0,0,0,0,0,0,-0.6119,-0.6097,-0.5966,-0.5959,-0.6036,-0.5953,-0.5939,-0.591,-0.5833,-0.5821,-0.5871,-0.5869,-0.5759,-0.5747,-0.5737,-0.5676,-0.5694,-0.5689,-0.5685,-0.5534,-0.5533,-0.5532,0,0,0,0,0,0,-0.6123,-0.6107,-0.597,-0.6027,-0.6009,-0.595,-0.5917,-0.5908,-0.5883,-0.582,-0.5809,-0.5857,-0.5759,-0.5744,-0.5687,-0.5672,-0.5686,-0.5681,-0.5535,-0.5534,-0.5533,-0.5558,0,0,0,0,0,0,-0.6128,-0.6109,-0.6093,-0.6027,-0.6006,-0.5925,-0.5917,-0.5905,-0.5874,-0.5872,-0.5804,-0.5793,-0.5758,-0.5696,-0.5682,-0.5664,-0.5677,-0.5536,-0.5535,-0.5533,-0.5558,-0.5557,-0.5557,0,0,0,0,0,-0.6135,-0.6105,-0.6093,-0.6077,-0.5985,-0.5925,-0.5912,-0.5873,-0.5873,-0.5855,-0.5814,-0.5795,-0.5676,-0.569,-0.5674,-0.5655,-0.5537,-0.5535,-0.5533,-0.5558,-0.5558,-0.5557,0,0,0,0,0,0,-0.617,-0.6096,-0.6081,-0.603,-0.5984,-0.5918,-0.5894,-0.5874,-0.5827,-0.5826,-0.5778,-0.5763,-0.571,-0.5677,-0.5694,-0.5606,-0.5605,-0.56,-0.5629,-0.5628,-0.5628,-0.5636,-0.5672,0,0,0,0,0,-0.6172,-0.6131,-0.6067,-0.6028,-0.6006,-0.5954,-0.5926,-0.59,-0.585,-0.583,-0.5785,-0.5736,-0.5687,-0.5656,-0.5608,-0.5553,-0.5536,-0.5531,-0.5531,-0.5531,-0.5526,-0.5492,-0.5488,-0.5526,-0.5526,-0.5526,0,0,-0.6175,-0.613,-0.6107,-0.6034,-0.5995,-0.5951,-0.5938,-0.5893,-0.5859,-0.5823,-0.5767,-0.5731,-0.5673,-0.5617,-0.5589,-0.5587,-0.5512,-0.5528,-0.5529,-0.5524,-0.5489,-0.5486,-0.5482,-0.5524,-0.5525,-0.5525,0,0,-0.6159,-0.6121,-0.6083,-0.6044,-0.5986,-0.5951,-0.5942,-0.5878,-0.5854,-0.5796,-0.5767,-0.5725,-0.5643,-0.5601,-0.557,-0.5534,-0.5514,-0.552,-0.5517,-0.5483,-0.548,-0.5477,-0.5462,-0.5457,-0.5516,-0.5516,-0.5516,0,-0.617,-0.6105,-0.6065,-0.6021,-0.5989,-0.5954,-0.5913,-0.5877,-0.5806,-0.5783,-0.5782,-0.5675,-0.5634,-0.5566,-0.5557,-0.5533,-0.5519,-0.5527,-0.5484,-0.5481,-0.5477,-0.5462,-0.5457,-0.5517,-0.5517,-0.5517,-0.5517,0,-0.612,-0.6075,-0.6051,-0.5983,-0.5948,-0.5906,-0.5857,-0.5826,-0.5802,-0.5766,-0.5706,-0.5655,-0.5594,-0.5576,-0.5553,-0.5503,-0.5503,-0.5494,-0.5492,-0.5475,-0.546,-0.5454,-0.5518,-0.5518,-0.5518,-0.5518,0,0,-0.6125,-0.6034,-0.6025,-0.5993,-0.5925,-0.5888,-0.5843,-0.5784,-0.5757,-0.5708,-0.5666,-0.5596,-0.5586,-0.555,-0.5521,-0.5492,-0.5463,-0.5485,-0.5483,-0.5481,-0.5402,-0.5408,-0.5402,-0.5449,-0.5448,-0.5447,-0.5406,0,-0.6098,-0.6017,-0.5979,-0.5914,-0.587,-0.5835,-0.5794,-0.5747,-0.5712,-0.5667,-0.5628,-0.5578,-0.557,-0.5547,-0.5517,-0.5473,-0.5446,-0.5476,-0.5408,-0.5406,-0.5422,-0.5395,-0.5402,-0.5366,-0.54,-0.5399,-0.5398,0,-0.6057,-0.6008,-0.5939,-0.5873,-0.5853,-0.5818,-0.5759,-0.5719,-0.5662,-0.5638,-0.5597,-0.5568,-0.5516,-0.5518,-0.5444,-0.5465,-0.5434,-0.5408,-0.5405,-0.5396,-0.54,-0.5383,-0.5354,-0.5347,-0.5389,-0.539,-0.539,0,-0.6064,-0.5981,-0.5928,-0.5902,-0.5825,-0.58,-0.5766,-0.5711,-0.5677,-0.5625,-0.5601,-0.5544,-0.5512,-0.5466,-0.5421,-0.5428,-0.535,-0.5349,-0.5326,-0.5327,-0.5311,-0.5312,-0.5274,-0.5294,-0.5294,-0.5294,-0.5295,0,-0.6038,-0.5996,-0.593,-0.5898,-0.5849,-0.5803,-0.5756,-0.5719,-0.5669,-0.5627,-0.5593,-0.5553,-0.5497,-0.5449,-0.5414,-0.5355,-0.5342,-0.5319,-0.5309,-0.5321,-0.5323,-0.5299,-0.53,-0.5293,-0.5293,-0.5294,-0.5294,0,-0.6038,-0.5993,-0.5932,-0.5863,-0.5845,-0.5812,-0.5751,-0.5716,-0.5679,-0.5625,-0.561,-0.555,-0.5492,-0.5443,-0.5366,-0.5342,-0.528,-0.5271,-0.53,-0.5295,-0.5273,-0.5275,-0.5217,-0.5205,-0.5236,-0.5235,-0.5235,0,-0.6024,-0.5991,-0.5918,-0.5888,-0.5855,-0.5806,-0.5771,-0.5724,-0.5688,-0.5619,-0.5592,-0.5532,-0.5481,-0.5388,-0.5337,-0.5277,-0.5264,-0.5247,-0.5254,-0.5266,-0.526,-0.5262,-0.5257,-0.5247,-0.5246,-0.5246,-0.5246,0,-0.6003,-0.5981,-0.5933,-0.5875,-0.5834,-0.5787,-0.5738,-0.5714,-0.5657,-0.5618,-0.5558,-0.5519,-0.5439,-0.5378,-0.5312,-0.5274,-0.5249,-0.5244,-0.5235,-0.5246,-0.5263,-0.5251,-0.5296,-0.5246,-0.5246,-0.5246,-0.5246,-0.5246,-0.5994,-0.5962,-0.5905,-0.5851,-0.5809,-0.5763,-0.5726,-0.5683,-0.5633,-0.5566,-0.554,-0.5478,-0.5419,-0.5327,-0.5289,-0.5238,-0.5235,-0.5222,-0.5219,-0.5216,-0.5216,-0.5273,-0.5226,-0.5226,-0.5226,-0.5226,-0.5226,0,-0.5969,-0.593,-0.5881,-0.5813,-0.577,-0.5751,-0.5695,-0.5659,-0.5606,-0.5553,-0.5503,-0.5432,-0.5372,-0.5314,-0.525,-0.522,-0.5206,-0.5204,-0.5205,-0.5196,-0.5224,-0.5237,-0.5216,-0.5216,-0.5216,-0.5216,-0.5216,-0.5216,-0.5951,-0.5895,-0.5866,-0.5787,-0.5747,-0.5687,-0.5656,-0.5612,-0.557,-0.5493,-0.5443,-0.5406,-0.535,-0.5281,-0.5223,-0.5207,-0.5184,-0.5185,-0.5166,-0.5193,-0.5195,-0.5196,-0.5208,-0.5181,-0.5181,-0.5141,-0.5141,-0.5141]},{"header":{"parameterUnit":"m.s-1","parameterCategory":1,"la1":30.2991,"la2":30.254,"lo1":-89.0895,"lo2":-89.0444,"dy":0.0017,"dx":0.0017,"nx":28,"ny":28,"refTime":"2025-05-21T21:00:00:Z","depth":0,"parameterNumber":3,"parameterNumberName":"V-component_of_WINDS"},"data":[0,0,0,0,0,0,0,0,0,0,0,0,0,0,0,0,0,0,0,0,0,0,0,0,0,0,0,0,0,0,0,0,0,0,0,0,0,0,0,0,0,0,0,0,0,0,0,0,0,0,0,0,0,0,0,0,0,0,-4.0328,-4.0328,0,-4.0342,-4.0343,-4.0343,-4.0322,-4.0321,-4.0321,-4.032,-4.0333,-4.0334,-4.0335,0,0,0,0,0,0,0,0,0,0,0,0,0,-4.0279,-4.028,-4.0328,-4.0328,-4.0328,-4.0342,-4.0343,-4.0343,-4.0322,-4.0321,-4.0321,-4.032,-4.0333,-4.0334,-4.0335,0,0,0,0,0,0,0,0,0,0,0,0,0,-4.0298,-4.0281,-4.0327,-4.0319,-4.0319,-4.0342,-4.0343,-4.0343,-4.0322,-4.0321,-4.032,-4.0319,-4.0332,-4.0334,-4.0335,-4.0367,0,0,-4.034,-4.0341,0,0,0,0,0,0,0,0,-4.0297,-4.03,-4.032,-4.032,-4.0319,-4.0329,-4.033,-4.0351,-4.0323,-4.0321,-4.032,-4.0319,-4.0333,-4.0334,-4.0339,-4.0367,-4.0368,-4.034,-4.0341,-4.0342,-4.0342,0,0,0,0,0,0,0,-4.0296,-4.0299,-4.0333,-4.0321,-4.032,-4.0315,-4.0316,-4.0334,-4.0333,-4.0321,-4.032,-4.0322,-4.0332,-4.0338,-4.0339,-4.0368,-4.034,-4.0341,-4.0342,-4.0343,-4.0423,-4.0424,0,0,0,0,0,0,-4.0296,-4.0298,-4.0333,-4.0334,-4.0305,-4.0316,-4.0318,-4.0327,-4.0332,-4.0332,-4.0323,-4.0321,-4.0336,-4.0338,-4.034,-4.0377,-4.0342,-4.0343,-4.0344,-4.0422,-4.0423,-4.0424,0,0,0,0,0,0,-4.0295,-4.0299,-4.0332,-4.0316,-4.0319,-4.0318,-4.0329,-4.0328,-4.0334,-4.0334,-4.0333,-4.0329,-4.0335,-4.0337,-4.036,-4.0377,-4.0344,-4.0345,-4.042,-4.0422,-4.0424,-4.0451,0,0,0,0,0,0,-4.0293,-4.0299,-4.0311,-4.0316,-4.032,-4.0353,-4.033,-4.0329,-4.0337,-4.0334,-4.0339,-4.0339,-4.0334,-4.0358,-4.0362,-4.0378,-4.0346,-4.0419,-4.0421,-4.0423,-4.0448,-4.0453,-4.0457,0,0,0,0,0,-4.0292,-4.0317,-4.0312,-4.0316,-4.0336,-4.0354,-4.0357,-4.0351,-4.0338,-4.035,-4.035,-4.0339,-4.0375,-4.0361,-4.0365,-4.0382,-4.0418,-4.042,-4.0423,-4.0446,-4.0452,-4.0457,0,0,0,0,0,0,-4.0313,-4.0318,-4.0311,-4.034,-4.0347,-4.0351,-4.0366,-4.0358,-4.0368,-4.0365,-4.0357,-4.0358,-4.0383,-4.0385,-4.0369,-4.0412,-4.0394,-4.0397,-4.041,-4.0416,-4.042,-4.0419,-4.0348,0,0,0,0,0,-4.0321,-4.0337,-4.034,-4.0364,-4.0368,-4.0367,-4.0374,-4.037,-4.0376,-4.0379,-4.0381,-4.0387,-4.04,-4.0408,-4.042,-4.0449,-4.0449,-4.0463,-4.0467,-4.0471,-4.0474,-4.0489,-4.0495,-4.0433,-4.0433,-4.0433,0,0,-4.0338,-4.0342,-4.0352,-4.0369,-4.0374,-4.0389,-4.0369,-4.0386,-4.0397,-4.0381,-4.0403,-4.0405,-4.0411,-4.0437,-4.0449,-4.044,-4.0491,-4.0474,-4.0477,-4.0478,-4.0493,-4.0499,-4.0504,-4.0435,-4.0435,-4.0434,0,0,-4.0376,-4.0381,-4.0403,-4.0408,-4.0417,-4.0415,-4.0421,-4.0426,-4.0427,-4.0449,-4.0437,-4.045,-4.0472,-4.0477,-4.0483,-4.0524,-4.0514,-4.0528,-4.0551,-4.0566,-4.0571,-4.0576,-4.059,-4.0595,-4.0531,-4.0531,-4.0531,0,-4.0395,-4.0419,-4.0414,-4.0432,-4.044,-4.0427,-4.0448,-4.0454,-4.0465,-4.047,-4.046,-4.0488,-4.0491,-4.0518,-4.0529,-4.0534,-4.0539,-4.0527,-4.0571,-4.0575,-4.0579,-4.0593,-4.0598,-4.0533,-4.0533,-4.0533,-4.0532,0,-4.0442,-4.0459,-4.0475,-4.0487,-4.0496,-4.0516,-4.0514,-4.0523,-4.0518,-4.0518,-4.0541,-4.0545,-4.0557,-4.0563,-4.0558,-4.059,-4.0584,-4.0573,-4.0553,-4.0587,-4.0599,-4.0605,-4.0535,-4.0535,-4.0534,-4.0534,0,0,-4.0493,-4.0503,-4.0509,-4.0515,-4.0524,-4.0536,-4.0555,-4.0568,-4.0576,-4.0585,-4.06,-4.062,-4.0609,-4.0616,-4.0611,-4.0625,-4.0657,-4.0612,-4.0612,-4.0619,-4.0692,-4.0699,-4.0705,-4.0651,-4.0652,-4.0652,-4.0691,0,-4.0531,-4.0564,-4.0561,-4.0593,-4.0608,-4.0597,-4.0613,-4.062,-4.0621,-4.0633,-4.0633,-4.0647,-4.0633,-4.0637,-4.065,-4.065,-4.0671,-4.0647,-4.0664,-4.0664,-4.0662,-4.0712,-4.072,-4.0756,-4.0696,-4.0697,-4.0697,0,-4.0579,-4.059,-4.0624,-4.0631,-4.0637,-4.0652,-4.0664,-4.0676,-4.0683,-4.0683,-4.0691,-4.0684,-4.0702,-4.0684,-4.0709,-4.0693,-4.07,-4.0701,-4.0702,-4.0703,-4.0682,-4.0713,-4.0768,-4.0773,-4.0705,-4.0704,-4.0704,0,-4.0612,-4.0636,-4.0659,-4.0664,-4.0673,-4.0683,-4.0687,-4.0694,-4.0702,-4.0712,-4.0718,-4.073,-4.0736,-4.0745,-4.0742,-4.0729,-4.0767,-4.0749,-4.0767,-4.0767,-4.0774,-4.0774,-4.083,-4.078,-4.078,-4.078,-4.078,0,-4.0654,-4.0674,-4.0674,-4.0688,-4.0711,-4.0707,-4.0729,-4.0732,-4.0738,-4.0752,-4.0743,-4.0756,-4.0751,-4.0764,-4.0761,-4.0782,-4.0785,-4.0785,-4.0784,-4.0785,-4.0785,-4.0789,-4.0786,-4.0781,-4.0781,-4.0781,-4.0781,0,-4.0694,-4.0694,-4.0719,-4.0726,-4.0728,-4.0744,-4.075,-4.0763,-4.0763,-4.0781,-4.0785,-4.0785,-4.08,-4.0798,-4.0814,-4.0812,-4.0838,-4.0834,-4.0836,-4.0834,-4.0852,-4.085,-4.0912,-4.0919,-4.0866,-4.0866,-4.0867,0,-4.072,-4.0736,-4.0745,-4.0754,-4.0759,-4.0774,-4.0783,-4.078,-4.0789,-4.08,-4.0811,-4.0825,-4.0836,-4.086,-4.0861,-4.0873,-4.0869,-4.089,-4.0871,-4.0872,-4.0869,-4.0867,-4.0869,-4.0893,-4.0894,-4.0894,-4.0895,0,-4.0766,-4.0766,-4.0779,-4.0793,-4.0804,-4.0814,-4.0824,-4.0832,-4.0829,-4.084,-4.0856,-4.0864,-4.0881,-4.0895,-4.0907,-4.091,-4.0902,-4.0901,-4.0906,-4.0907,-4.0907,-4.0906,-4.0845,-4.0899,-4.0899,-4.0899,-4.0898,-4.0898,-4.08,-4.0813,-4.0822,-4.0837,-4.0845,-4.0854,-4.0866,-4.0869,-4.0882,-4.0896,-4.0894,-4.0911,-4.0918,-4.0933,-4.0938,-4.0951,-4.0943,-4.095,-4.0951,-4.0953,-4.0955,-4.0906,-4.0953,-4.0953,-4.0953,-4.0953,-4.0953,0,-4.0845,-4.0851,-4.0865,-4.0879,-4.0891,-4.0884,-4.0894,-4.0904,-4.0919,-4.0928,-4.0939,-4.0957,-4.097,-4.0973,-4.0986,-4.0996,-4.0992,-4.0999,-4.0998,-4.0999,-4.0961,-4.0956,-4.1002,-4.1002,-4.1002,-4.1002,-4.1002,-4.1002,-4.087,-4.0893,-4.0894,-4.092,-4.0925,-4.0942,-4.0949,-4.0957,-4.0963,-4.0984,-4.0996,-4.0998,-4.1004,-4.1017,-4.1029,-4.103,-4.1034,-4.1042,-4.1041,-4.1006,-4.1001,-4.0996,-4.0991,-4.1044,-4.1044,-4.1077,-4.1077,-4.1078]}]]